Regional Weather Roundup
Issued by NWS

Home | Current Version | Previous Version | Graphics & Text | Print | Product List | Glossary On
Versions: 1 2 3 4 5 6 7 8 9 10 11 12 13 14 15 16 17 18 19 20 21 22 23 24 25 26 27 28 29 30 31 32 33 34 35 36 37 38 39 40 41 42 43 44 45 46 47 48 49 50
000
ASUS43 KFSD 131602
RWRSD

WEATHER ROUNDUP FOR SOUTH DAKOTA
NATIONAL WEATHER SERVICE SIOUX FALLS SD
1100 AM CDT SUN JUL 13 2014

NOTE: "FAIR" INDICATES FEW OR NO CLOUDS BELOW 12,000 FEET WITH NO
SIGNIFICANT WEATHER AND/OR OBSTRUCTIONS TO VISIBILITY.


SDZ001>005-009-010-012>017-131700-
NORTHWEST AND NORTH CENTRAL SOUTH DAKOTA

CITY           SKY/WX    TMP DP  RH WIND       PRES   REMARKS
BUFFALO          N/A     72  51  47 NW13      30.13F
FAITH            N/A     74  56  53 N10       30.16F
MOBRIDGE       SUNNY     70  51  51 N10       30.09F
$$

SDZ012>016-024>037-041>051-057-063-072>074-131700-
SOUTHWEST AND SOUTH CENTRAL SOUTH DAKOTA

CITY           SKY/WX    TMP DP  RH WIND       PRES   REMARKS
RAPID CTY ARPT SUNNY     76  55  48 NW6       30.21F
PIERRE         SUNNY     76  61  59 N10       30.09F
CUSTER         SUNNY     72  51  47 W13G20    30.33F
ELLSWORTH AFB  SUNNY     77  53  43 N6        30.21F
PHILIP         SUNNY     81  52  36 W7        30.13F
PINE RIDGE     SUNNY     75  61  61 CALM      30.22F
WINNER         FAIR      82  57  42 NW7       30.11F
$$

SDZ004>011-016>023-039-040-131700-
NORTHEAST SOUTH DAKOTA

CITY           SKY/WX    TMP DP  RH WIND       PRES   REMARKS
ABERDEEN       SUNNY     72  49  44 NW15      30.05F
WATERTOWN      SUNNY     72  52  49 NW15      30.04F
SISSETON         N/A     72  56  57 N13       30.01S
$$

SDZ017-020-022-023-036>040-048>070-131700-
SOUTHEAST SOUTH DAKOTA

CITY           SKY/WX    TMP DP  RH WIND       PRES   REMARKS
SIOUX FALLS    MOSUNNY   77  63  61 NW9       30.05S
HURON          SUNNY     76  55  48 N7        30.06F
CHAMBERLAIN    SUNNY     79  60  53 W7        30.08F
MITCHELL       SUNNY     77  62  59 NW7       30.07F
YANKTON        SUNNY     77  66  69 NW5       30.07S
$$

ABBREVIATIONS USED IN REMARKS
   TC - TEMPERATURE IN CELSIUS
  WCI - WIND CHILL INDEX
   HX - HEAT INDEX
  VSB - VISIBILITY



USA.gov is the U.S. government's official web portal to all federal, state and local government web resources and services.